QPF
0.04 0.05 0.06 0.07 0.08 0.08 0.10 0.14 0.16 0.18 0.22 0.20 0.07 0.01 0.00 0.00 0.00 0.01 0.00 0.00 0.00 0.00 0.00 0.00 0.00 0.00 0.00 0.00 0.00 0.00 0.00 0.00 0.00 0.00 0.00 0.00 0.00 0.00
0.05 0.05 0.07 0.10 0.12 0.15 0.18 0.19 0.18 0.20 0.24 0.23 0.16 0.05 0.01 0.00 0.00 0.00 0.00 0.00 0.00 0.00 0.00 0.00 0.00 0.00 0.00 0.00 0.00 0.00 0.00 0.00 0.00 0.00 0.00 0.00 0.00 0.00
0.04 0.04 0.06 0.10 0.15 0.20 0.22 0.22 0.21 0.22 0.26 0.28 0.22 0.13 0.07 0.03 0.01 0.00 0.00 0.00 0.00 0.00 0.00 0.00 0.00 0.00 0.00 0.00 0.00 0.00 0.00 0.00 0.00 0.00 0.00 0.00 0.00 0.00
0.02 0.03 0.04 0.08 0.13 0.18 0.20 0.24 0.28 0.29 0.30 0.33 0.31 0.22 0.14 0.06 0.03 0.02 0.00 0.00 0.00 0.00 0.00 0.00 0.00 0.00 0.00 0.00 0.00 0.00 0.00 0.00 0.00 0.00 0.00 0.00 0.00 0.00
0.01 0.01 0.03 0.05 0.10 0.16 0.18 0.23 0.27 0.24 0.26 0.28 0.30 0.23 0.18 0.10 0.09 0.06 0.03 0.04 0.01 0.00 0.00 0.00 0.00 0.00 0.00 0.00 0.00 0.00 0.00 0.00 0.00 0.00 0.00 0.00 0.00 0.00
0.01 0.01 0.03 0.04 0.08 0.11 0.14 0.16 0.18 0.18 0.16 0.19 0.23 0.21 0.19 0.17 0.17 0.14 0.11 0.10 0.06 0.02 0.02 0.00 0.00 0.00 0.00 0.00 0.00 0.00 0.00 0.00 0.00 0.00 0.00 0.00 0.00 0.00
0.01 0.02 0.03 0.04 0.05 0.07 0.10 0.12 0.13 0.15 0.15 0.17 0.19 0.19 0.19 0.19 0.18 0.15 0.14 0.14 0.11 0.07 0.09 0.06 0.05 0.05 0.03 0.01 0.01 0.01 0.01 0.00 0.00 0.00 0.00 0.00 0.00 0.00
0.01 0.01 0.01 0.02 0.03 0.05 0.07 0.08 0.09 0.13 0.17 0.20 0.19 0.19 0.18 0.16 0.15 0.13 0.14 0.15 0.15 0.11 0.14 0.14 0.11 0.11 0.08 0.05 0.04 0.02 0.02 0.01 0.01 0.00 0.00 0.00 0.00 0.00
0.00 0.00 0.00 0.00 0.01 0.01 0.03 0.03 0.04 0.05 0.07 0.12 0.15 0.13 0.11 0.11 0.12 0.13 0.13 0.14 0.15 0.10 0.13 0.18 0.15 0.12 0.06 0.07 0.06 0.03 0.02 0.02 0.01 0.01 0.00 0.00 0.00 0.00
0.00 0.00 0.00 0.00 0.00 0.00 0.00 0.01 0.01 0.01 0.02 0.03 0.05 0.05 0.05 0.07 0.09 0.12 0.12 0.10 0.09 0.07 0.09 0.19 0.16 0.12 0.05 0.04 0.04 0.03 0.02 0.01 0.01 0.01 0.01 0.01 0.01 0.01
0.00 0.00 0.00 0.00 0.00 0.00 0.00 0.00 0.00 0.00 0.00 0.00 0.01 0.02 0.03 0.04 0.05 0.08 0.10 0.12 0.15 0.10 0.06 0.12 0.12 0.10 0.07 0.05 0.03 0.02 0.01 0.01 0.01 0.01 0.01 0.01 0.01 0.01
0.00 0.00 0.00 0.00 0.00 0.00 0.00 0.00 0.00 0.00 0.00 0.00 0.00 0.00 0.01 0.01 0.02 0.03 0.05 0.08 0.13 0.11 0.05 0.06 0.06 0.07 0.08 0.04 0.01 0.01 0.00 0.00 0.00 0.00 0.00 0.01 0.01 0.01
0.00 0.00 0.00 0.00 0.00 0.00 0.00 0.00 0.00 0.00 0.00 0.00 0.00 0.00 0.00 0.00 0.00 0.00 0.01 0.02 0.04 0.05 0.04 0.04 0.03 0.03 0.05 0.03 0.01 0.00 0.00 0.00 0.00 0.00 0.00 0.00 0.00 0.00
0.00 0.00 0.00 0.00 0.00 0.00 0.00 0.00 0.00 0.00 0.00 0.00 0.00 0.00 0.00 0.00 0.00 0.00 0.00 0.00 0.01 0.02 0.02 0.02 0.01 0.02 0.01 0.01 0.00 0.00 0.00 0.00 0.00 0.00 0.00 0.00 0.00 0.00
0.00 0.00 0.00 0.00 0.00 0.00 0.00 0.00 0.00 0.00 0.00 0.00 0.00 0.00 0.00 0.00 0.00 0.00 0.00 0.00 0.00 0.00 0.00 0.00 0.00 0.00 0.00 0.00 0.00 0.00 0.00 0.00 0.00 0.00 0.00 0.00 0.00 0.00
0.00 0.00 0.00 0.00 0.00 0.00 0.00 0.00 0.00 0.00 0.00 0.00 0.00 0.00 0.00 0.00 0.00 0.00 0.00 0.00 0.00 0.00 0.00 0.00 0.00 0.00 0.00 0.00 0.00 0.00 0.00 0.00 0.00 0.00 0.00 0.00 0.00 0.00
0.01 0.01 0.00 0.00 0.00 0.00 0.00 0.00 0.00 0.00 0.00 0.00 0.00 0.00 0.00 0.00 0.00 0.00 0.00 0.00 0.00 0.00 0.00 0.00 0.00 0.00 0.00 0.00 0.00 0.00 0.00 0.00 0.00 0.00 0.00 0.00 0.00 0.00
0.03 0.04 0.03 0.01 0.00 0.00 0.00 0.00 0.00 0.00 0.00 0.00 0.00 0.00 0.00 0.00 0.00 0.00 0.00 0.00 0.00 0.00 0.00 0.00 0.00 0.00 0.00 0.00 0.00 0.00 0.00 0.00 0.00 0.00 0.00 0.00 0.00 0.00
0.04 0.06 0.07 0.05 0.02 0.01 0.00 0.00 0.00 0.00 0.00 0.00 0.00 0.00 0.00 0.00 0.00 0.00 0.00 0.00 0.00 0.00 0.00 0.00 0.00 0.00 0.00 0.00 0.00 0.00 0.00 0.00 0.00 0.00 0.00 0.00 0.00 0.00
0.02 0.05 0.07 0.07 0.05 0.03 0.01 0.00 0.00 0.00 0.00 0.00 0.00 0.00 0.00 0.00 0.00 0.00 0.00 0.00 0.00 0.00 0.00 0.00 0.00 0.00 0.00 0.00 0.00 0.00 0.00 0.00 0.00 0.00 0.00 0.00 0.00 0.00
0.01 0.01 0.02 0.03 0.04 0.04 0.03 0.02 0.01 0.00 0.00 0.00 0.00 0.00 0.00 0.00 0.00 0.00 0.00 0.00 0.00 0.00 0.00 0.00 0.00 0.00 0.00 0.00 0.00 0.00 0.00 0.00 0.00 0.00 0.00 0.00 0.00 0.00
0.00 0.00 0.00 0.01 0.01 0.02 0.02 0.02 0.01 0.01 0.00 0.00 0.00 0.00 0.00 0.00 0.00 0.00 0.00 0.00 0.00 0.00 0.00 0.00 0.00 0.00 0.00 0.00 0.00 0.00 0.00 0.00 0.00 0.00 0.00 0.00 0.00 0.00
0.00 0.00 0.00 0.00 0.00 0.00 0.00 0.01 0.01 0.01 0.01 0.00 0.00 0.00 0.00 0.00 0.00 0.00 0.00 0.00 0.00 0.00 0.00 0.00 0.00 0.00 0.00 0.00 0.00 0.00 0.00 0.00 0.00 0.00 0.00 0.00 0.00 0.00
MSLP
1012.68 1012.69 1012.70 1012.73 1012.74 1012.75 1012.74 1012.73 1012.71 1012.68 1012.66 1012.63 1012.62 1012.61 1012.63 1012.70 1012.81 1013.00 1013.26 1013.59 1013.98 1014.41 1014.85 1015.27 1015.65 1015.99 1016.26 1016.49 1016.68 1016.84 1017.01 1017.18 1017.37 1017.56 1017.74 1017.91 1018.06 1018.17
1012.26 1012.22 1012.19 1012.19 1012.19 1012.20 1012.20 1012.22 1012.24 1012.27 1012.30 1012.35 1012.41 1012.47 1012.56 1012.67 1012.82 1013.02 1013.26 1013.55 1013.89 1014.25 1014.61 1014.96 1015.29 1015.57 1015.81 1016.02 1016.21 1016.37 1016.54 1016.71 1016.89 1017.07 1017.24 1017.39 1017.51 1017.60
1012.05 1011.94 1011.86 1011.80 1011.76 1011.74 1011.73 1011.74 1011.77 1011.83 1011.91 1012.01 1012.12 1012.24 1012.38 1012.52 1012.69 1012.88 1013.09 1013.33 1013.60 1013.88 1014.17 1014.46 1014.74 1015.00 1015.23 1015.45 1015.65 1015.84 1016.03 1016.21 1016.39 1016.56 1016.72 1016.85 1016.95 1017.02
1012.08 1011.92 1011.78 1011.66 1011.55 1011.47 1011.41 1011.39 1011.41 1011.47 1011.56 1011.69 1011.84 1012.00 1012.17 1012.33 1012.50 1012.67 1012.84 1013.02 1013.22 1013.43 1013.65 1013.89 1014.13 1014.37 1014.61 1014.84 1015.07 1015.29 1015.50 1015.70 1015.88 1016.04 1016.18 1016.29 1016.37 1016.43
1012.36 1012.15 1011.96 1011.77 1011.60 1011.45 1011.32 1011.25 1011.22 1011.25 1011.34 1011.47 1011.63 1011.81 1012.00 1012.17 1012.33 1012.47 1012.61 1012.73 1012.86 1013.01 1013.17 1013.35 1013.55 1013.78 1014.02 1014.26 1014.51 1014.76 1014.98 1015.19 1015.37 1015.52 1015.64 1015.73 1015.80 1015.85
1012.81 1012.58 1012.35 1012.12 1011.88 1011.66 1011.46 1011.32 1011.23 1011.22 1011.27 1011.38 1011.54 1011.72 1011.91 1012.09 1012.24 1012.36 1012.46 1012.54 1012.61 1012.70 1012.80 1012.94 1013.11 1013.31 1013.54 1013.79 1014.04 1014.29 1014.52 1014.72 1014.89 1015.02 1015.11 1015.18 1015.24 1015.29
1013.33 1013.11 1012.87 1012.60 1012.32 1012.04 1011.78 1011.57 1011.42 1011.35 1011.36 1011.44 1011.57 1011.75 1011.93 1012.10 1012.24 1012.35 1012.42 1012.47 1012.51 1012.55 1012.61 1012.70 1012.83 1013.01 1013.22 1013.45 1013.68 1013.92 1014.13 1014.31 1014.45 1014.55 1014.62 1014.67 1014.72 1014.77
1013.82 1013.63 1013.40 1013.13 1012.83 1012.51 1012.21 1011.94 1011.74 1011.61 1011.57 1011.60 1011.71 1011.86 1012.03 1012.19 1012.33 1012.43 1012.50 1012.53 1012.54 1012.55 1012.58 1012.64 1012.74 1012.88 1013.05 1013.25 1013.45 1013.65 1013.83 1013.97 1014.07 1014.14 1014.18 1014.21 1014.24 1014.30
1014.20 1014.06 1013.86 1013.62 1013.33 1013.00 1012.68 1012.37 1012.12 1011.95 1011.86 1011.85 1011.92 1012.04 1012.19 1012.34 1012.48 1012.58 1012.64 1012.67 1012.68 1012.68 1012.69 1012.72 1012.79 1012.89 1013.02 1013.18 1013.33 1013.48 1013.61 1013.70 1013.76 1013.78 1013.79 1013.79 1013.81 1013.87
1014.46 1014.37 1014.23 1014.03 1013.76 1013.46 1013.13 1012.82 1012.54 1012.33 1012.20 1012.15 1012.18 1012.26 1012.39 1012.53 1012.65 1012.76 1012.83 1012.86 1012.87 1012.87 1012.87 1012.89 1012.93 1012.99 1013.08 1013.19 1013.29 1013.38 1013.45 1013.49 1013.50 1013.48 1013.46 1013.43 1013.44 1013.48
1014.66 1014.62 1014.52 1014.37 1014.15 1013.88 1013.58 1013.27 1012.98 1012.75 1012.58 1012.48 1012.47 1012.52 1012.61 1012.72 1012.84 1012.94 1013.01 1013.06 1013.08 1013.08 1013.08 1013.08 1013.10 1013.13 1013.18 1013.23 1013.28 1013.32 1013.33 1013.32 1013.29 1013.23 1013.17 1013.13 1013.11 1013.14
1014.86 1014.85 1014.80 1014.69 1014.52 1014.29 1014.02 1013.73 1013.44 1013.19 1012.98 1012.85 1012.78 1012.78 1012.83 1012.91 1013.01 1013.10 1013.17 1013.22 1013.25 1013.26 1013.26 1013.26 1013.26 1013.26 1013.27 1013.28 1013.28 1013.27 1013.24 1013.19 1013.12 1013.03 1012.95 1012.88 1012.85 1012.85
1015.14 1015.15 1015.12 1015.05 1014.92 1014.72 1014.48 1014.20 1013.91 1013.64 1013.41 1013.23 1013.11 1013.06 1013.06 1013.10 1013.16 1013.23 1013.29 1013.34 1013.38 1013.39 1013.39 1013.39 1013.37 1013.36 1013.34 1013.32 1013.28 1013.23 1013.17 1013.09 1012.99 1012.89 1012.79 1012.71 1012.66 1012.65
1015.52 1015.52 1015.51 1015.45 1015.34 1015.17 1014.94 1014.67 1014.39 1014.10 1013.83 1013.60 1013.43 1013.32 1013.26 1013.25 1013.28 1013.32 1013.37 1013.41 1013.45 1013.47 1013.47 1013.47 1013.45 1013.42 1013.38 1013.34 1013.28 1013.21 1013.13 1013.04 1012.93 1012.83 1012.72 1012.64 1012.57 1012.54
1015.99 1015.96 1015.93 1015.87 1015.77 1015.60 1015.38 1015.11 1014.82 1014.50 1014.20 1013.93 1013.70 1013.53 1013.42 1013.36 1013.34 1013.35 1013.39 1013.43 1013.46 1013.49 1013.50 1013.50 1013.48 1013.46 1013.41 1013.36 1013.30 1013.22 1013.14 1013.05 1012.95 1012.86 1012.76 1012.68 1012.61 1012.57
1016.45 1016.39 1016.34 1016.26 1016.14 1015.97 1015.75 1015.47 1015.15 1014.81 1014.48 1014.16 1013.88 1013.66 1013.49 1013.39 1013.33 1013.32 1013.34 1013.38 1013.42 1013.46 1013.49 1013.50 1013.50 1013.48 1013.45 1013.40 1013.35 1013.28 1013.21 1013.14 1013.07 1012.99 1012.91 1012.85 1012.78 1012.73
1016.81 1016.72 1016.64 1016.54 1016.40 1016.22 1015.98 1015.69 1015.36 1015.00 1014.63 1014.27 1013.95 1013.68 1013.48 1013.33 1013.25 1013.22 1013.24 1013.28 1013.34 1013.39 1013.44 1013.48 1013.50 1013.50 1013.49 1013.47 1013.43 1013.39 1013.35 1013.31 1013.26 1013.22 1013.17 1013.12 1013.06 1013.01
1016.98 1016.88 1016.77 1016.66 1016.51 1016.32 1016.07 1015.77 1015.43 1015.05 1014.66 1014.27 1013.92 1013.62 1013.38 1013.21 1013.11 1013.07 1013.09 1013.14 1013.21 1013.29 1013.37 1013.44 1013.49 1013.53 1013.54 1013.55 1013.55 1013.54 1013.53 1013.52 1013.51 1013.49 1013.47 1013.44 1013.40 1013.34
1016.96 1016.85 1016.74 1016.62 1016.47 1016.28 1016.04 1015.75 1015.40 1015.02 1014.62 1014.23 1013.86 1013.53 1013.27 1013.07 1012.96 1012.91 1012.92 1012.98 1013.08 1013.18 1013.29 1013.39 1013.47 1013.54 1013.59 1013.63 1013.65 1013.68 1013.70 1013.72 1013.74 1013.75 1013.76 1013.74 1013.71 1013.65
1016.78 1016.68 1016.59 1016.48 1016.36 1016.19 1015.97 1015.70 1015.38 1015.01 1014.62 1014.22 1013.83 1013.49 1013.21 1012.99 1012.86 1012.80 1012.80 1012.86 1012.96 1013.08 1013.21 1013.33 1013.44 1013.53 1013.61 1013.67 1013.72 1013.77 1013.81 1013.86 1013.90 1013.93 1013.95 1013.95 1013.93 1013.87
1016.53 1016.46 1016.40 1016.34 1016.26 1016.13 1015.96 1015.73 1015.44 1015.10 1014.73 1014.33 1013.95 1013.59 1013.29 1013.05 1012.88 1012.79 1012.77 1012.81 1012.90 1013.01 1013.14 1013.27 1013.38 1013.48 1013.57 1013.64 1013.70 1013.76 1013.81 1013.87 1013.92 1013.97 1014.00 1014.00 1013.98 1013.92
1016.31 1016.29 1016.28 1016.28 1016.25 1016.19 1016.08 1015.91 1015.67 1015.37 1015.03 1014.65 1014.26 1013.89 1013.56 1013.28 1013.07 1012.94 1012.87 1012.87 1012.92 1013.00 1013.10 1013.21 1013.31 1013.39 1013.47 1013.53 1013.58 1013.63 1013.68 1013.73 1013.78 1013.83 1013.86 1013.87 1013.85 1013.79
1016.21 1016.24 1016.29 1016.35 1016.39 1016.40 1016.37 1016.26 1016.09 1015.84 1015.53 1015.17 1014.79 1014.40 1014.04 1013.72 1013.45 1013.25 1013.12 1013.05 1013.04 1013.06 1013.11 1013.17 1013.22 1013.27 1013.31 1013.34 1013.37 1013.40 1013.42 1013.46 1013.49 1013.53 1013.55 1013.56 1013.55 1013.50
Thickness
5712 5713 5713 5715 5714 5715 5713 5710 5702 5698 5700 5705 5709 5708 5705 5701 5695 5694 5691 5687 5684 5681 5678 5675 5673 5671 5670 5668 5667 5666 5665 5665 5665 5665 5665 5664 5665 5665
5705 5706 5706 5708 5708 5708 5708 5706 5704 5699 5696 5702 5703 5706 5703 5700 5692 5691 5689 5683 5680 5677 5675 5673 5672 5671 5670 5669 5669 5668 5668 5667 5667 5667 5667 5667 5667 5666
5699 5700 5701 5702 5701 5702 5702 5701 5700 5698 5693 5696 5700 5700 5697 5696 5691 5690 5688 5683 5681 5677 5675 5673 5672 5671 5671 5671 5671 5671 5670 5670 5670 5670 5670 5670 5669 5668
5690 5692 5694 5696 5696 5696 5696 5696 5696 5696 5693 5691 5692 5693 5692 5691 5690 5688 5688 5687 5686 5681 5677 5675 5674 5673 5673 5672 5672 5673 5673 5673 5673 5673 5673 5672 5671 5671
5680 5682 5684 5686 5688 5689 5690 5690 5691 5694 5692 5688 5687 5689 5688 5688 5686 5686 5687 5685 5685 5684 5679 5676 5675 5674 5674 5674 5674 5675 5676 5676 5676 5676 5675 5674 5673 5672
5669 5670 5672 5675 5677 5680 5683 5684 5685 5686 5686 5683 5682 5683 5682 5682 5681 5680 5679 5680 5681 5685 5681 5679 5677 5675 5674 5675 5675 5676 5677 5678 5678 5678 5677 5676 5674 5673
5658 5659 5660 5661 5662 5666 5672 5674 5676 5677 5678 5677 5676 5676 5676 5675 5674 5674 5672 5673 5674 5677 5677 5678 5677 5676 5675 5674 5675 5676 5677 5678 5679 5678 5677 5676 5675 5673
5647 5648 5649 5651 5651 5653 5655 5658 5661 5666 5667 5668 5668 5668 5668 5669 5668 5667 5666 5664 5663 5670 5670 5671 5675 5673 5674 5673 5671 5673 5675 5677 5677 5677 5677 5676 5674 5672
5634 5637 5639 5639 5641 5644 5645 5647 5650 5651 5653 5660 5659 5659 5659 5659 5659 5659 5659 5658 5659 5663 5664 5663 5667 5666 5667 5664 5665 5667 5669 5672 5673 5674 5674 5674 5673 5671
5620 5624 5626 5628 5628 5631 5635 5638 5640 5641 5644 5648 5648 5648 5648 5649 5651 5651 5651 5652 5653 5655 5657 5657 5660 5660 5662 5661 5659 5661 5662 5664 5666 5668 5668 5669 5669 5668
5606 5608 5613 5615 5612 5616 5625 5626 5627 5628 5628 5629 5631 5633 5634 5637 5640 5643 5643 5644 5644 5645 5648 5651 5653 5654 5656 5656 5654 5654 5656 5658 5659 5661 5663 5664 5665 5665
5594 5596 5594 5597 5598 5602 5612 5614 5614 5617 5620 5622 5621 5622 5626 5628 5630 5633 5636 5637 5637 5636 5638 5642 5644 5646 5645 5648 5650 5650 5651 5652 5653 5655 5657 5658 5660 5663
5583 5585 5583 5582 5585 5589 5594 5599 5598 5602 5610 5613 5615 5617 5620 5621 5623 5624 5626 5630 5630 5630 5630 5632 5634 5637 5638 5638 5640 5642 5645 5647 5649 5650 5651 5652 5654 5657
5568 5570 5569 5568 5571 5575 5580 5581 5585 5590 5601 5603 5605 5606 5609 5611 5612 5613 5614 5616 5619 5621 5622 5626 5630 5630 5632 5633 5634 5636 5638 5640 5643 5646 5648 5647 5649 5649
5553 5550 5552 5555 5558 5563 5565 5569 5575 5583 5588 5591 5593 5594 5597 5598 5601 5602 5604 5605 5608 5611 5613 5616 5621 5624 5628 5628 5629 5631 5632 5634 5636 5638 5641 5643 5646 5647
5542 5542 5541 5544 5547 5549 5554 5560 5565 5568 5571 5576 5580 5584 5586 5589 5592 5595 5598 5600 5601 5602 5601 5604 5607 5611 5614 5615 5619 5620 5622 5624 5626 5629 5633 5635 5637 5639
5528 5533 5537 5541 5543 5546 5548 5550 5553 5557 5560 5564 5568 5572 5576 5579 5581 5583 5584 5589 5591 5592 5592 5593 5595 5597 5599 5603 5605 5607 5610 5613 5615 5617 5622 5626 5628 5630
5517 5518 5520 5525 5529 5534 5538 5542 5545 5547 5549 5552 5556 5559 5563 5567 5571 5573 5574 5577 5579 5582 5584 5585 5585 5586 5587 5588 5589 5594 5598 5601 5605 5607 5612 5616 5618 5620
5510 5509 5508 5509 5512 5517 5523 5529 5533 5538 5538 5542 5546 5550 5553 5556 5559 5562 5564 5566 5569 5571 5573 5575 5576 5577 5578 5580 5578 5580 5585 5588 5593 5598 5601 5604 5607 5611
5505 5505 5503 5502 5502 5503 5507 5512 5518 5524 5530 5533 5537 5541 5544 5547 5551 5554 5557 5558 5560 5561 5563 5565 5566 5568 5569 5571 5574 5574 5572 5577 5581 5585 5590 5595 5600 5602
5496 5495 5494 5493 5493 5494 5495 5497 5502 5507 5513 5519 5525 5528 5533 5537 5541 5545 5548 5549 5549 5553 5554 5556 5558 5557 5560 5561 5563 5567 5568 5564 5566 5570 5575 5583 5588 5595
5480 5480 5479 5478 5479 5479 5481 5485 5489 5493 5497 5503 5509 5513 5519 5524 5529 5532 5536 5539 5541 5544 5546 5548 5548 5549 5550 5550 5553 5557 5559 5558 5557 5558 5561 5565 5570 5576
5461 5461 5462 5461 5461 5462 5466 5468 5472 5476 5480 5484 5490 5495 5501 5506 5512 5517 5521 5524 5527 5530 5533 5535 5537 5539 5541 5543 5545 5547 5549 5550 5553 5554 5557 5556 5557 5560